FW1869 Egremont UK current weather conditions

sailwx.info

Wind from 315 at 2 knots gusting 10

Air temperature 6.1° C
Dewpoint 3.9° C

Last reported at 2019-Dec-14 00:05 UTC.
Time now 2019-Dec-14 00:37 UTC

Location: N 54°25' W 003°26'.
View on Google Maps.

See reports from other nearby stations

  
Tides and Currents Weather Stations Pressure Air Temp Water Temp Dewpoint Dewpoint Depression Visibility Wind Speed Wind Dir Waves Ship Positions
date/time (UTC)wind fromknots sea level pressurealtimeterstation pressurevisibilityair tempwater tempwave heightnotes
2019-Dec-14 00:05 315 2 gusting 10 6.1
2019-Dec-13 23:55 315 1 gusting 4 6.1
2019-Dec-13 23:45 315 1 gusting 4 6.1
2019-Dec-13 23:35 315 1 gusting 6 6.1
2019-Dec-13 23:25 315 2 gusting 6 6.1
2019-Dec-13 23:15 315 2 gusting 9 6.1
2019-Dec-13 23:05 315 2 gusting 6 6.1
2019-Dec-13 22:55 315 1 gusting 5 6.1
2019-Dec-13 22:45 293 1 gusting 8 6.1
2019-Dec-13 22:35 315 2 gusting 6 6.1
2019-Dec-13 22:25 315 1 gusting 5 6.1
2019-Dec-13 22:15 315 1 gusting 10 6.1
2019-Dec-13 22:05 315 1 gusting 6 6.1
2019-Dec-13 21:55 315 1 gusting 5 6.1
2019-Dec-13 21:45 338 2 gusting 13 6.1
2019-Dec-13 21:35 315 1 gusting 6 5.6
2019-Dec-13 21:25 315 2 gusting 7 6.1
2019-Dec-13 21:15 315 2 gusting 7 6.1
2019-Dec-13 21:05 315 2 gusting 10 6.1
2019-Dec-13 20:55 315 2 gusting 6 6.1
2019-Dec-13 20:45 315 1 gusting 6 6.1
2019-Dec-13 20:35 315 0 gusting 6 6.1
2019-Dec-13 20:25 045 0 gusting 3 6.1
2019-Dec-13 20:15 315 1 gusting 6 6.1
2019-Dec-13 20:05 045 2 gusting 7 6.1
2019-Dec-13 19:55 315 2 gusting 10 6.1
2019-Dec-13 19:45 315 2 gusting 9 6.1
2019-Dec-13 19:35 315 2 gusting 9 6.1
2019-Dec-13 19:25 315 2 gusting 12 6.1
2019-Dec-13 19:15 315 3 gusting 8 6.1
2019-Dec-13 19:05 315 2 gusting 6 6.1
2019-Dec-13 18:55 315 4 gusting 13 6.1
2019-Dec-13 18:45 315 1 gusting 5 6.1
2019-Dec-13 18:35 315 1 gusting 6 6.1
2019-Dec-13 18:25 315 3 gusting 14 6.1
2019-Dec-13 18:15 315 3 gusting 13 6.1
2019-Dec-13 18:05 315 0 gusting 4 6.7
2019-Dec-13 17:55 315 0 gusting 3 6.7
2019-Dec-13 17:45 315 1 gusting 6 6.7
2019-Dec-13 17:35 315 0 gusting 4 7.2
2019-Dec-13 17:25 315 0 gusting 2 6.7
2019-Dec-13 17:15 315 1 gusting 5 7.2
2019-Dec-13 17:05 293 0 gusting 4 7.2
2019-Dec-13 16:55 045 0 gusting 5 6.7
2019-Dec-13 16:45 225 0 gusting 4 7.2
2019-Dec-13 16:35 315 0 gusting 4 7.2
2019-Dec-13 16:25 7.2
2019-Dec-13 16:15 7.2
2019-Dec-13 16:05 7.2
2019-Dec-13 15:55 7.2
2019-Dec-13 15:45 315 0 gusting 3 7.2
2019-Dec-13 15:35 7.2
2019-Dec-13 15:25 338 0 gusting 5 7.2
2019-Dec-13 15:15 7.2
2019-Dec-13 15:05 7.2
2019-Dec-13 14:55 7.8
2019-Dec-13 14:45 7.8
2019-Dec-13 14:35 225 0 gusting 2 7.8
2019-Dec-13 14:25 7.8
2019-Dec-13 14:15 045 0 gusting 3 7.8
2019-Dec-13 14:05 7.8
2019-Dec-13 13:55 7.8
2019-Dec-13 13:45 7.8
2019-Dec-13 13:35 045 0 gusting 2 7.8
2019-Dec-13 13:25 045 0 gusting 3 7.8
2019-Dec-13 13:15 338 0 gusting 3 7.8
2019-Dec-13 13:05 7.8
2019-Dec-13 12:55 315 0 gusting 4 7.8
2019-Dec-13 12:45 7.2
2019-Dec-13 12:35 7.2
2019-Dec-13 12:25 7.2
2019-Dec-13 12:15 7.2
2019-Dec-13 12:05 7.2
2019-Dec-13 11:55 7.2
2019-Dec-13 11:45 7.2
2019-Dec-13 11:35 7.2
2019-Dec-13 11:25 7.2
2019-Dec-13 11:15 6.7
2019-Dec-13 11:05 6.7
2019-Dec-13 10:55 6.7
2019-Dec-13 10:45 6.7
2019-Dec-13 10:35 6.1
2019-Dec-13 10:25 6.1
2019-Dec-13 10:15 6.1
2019-Dec-13 10:05 6.1
2019-Dec-13 09:55 6.1
2019-Dec-13 09:45 6.1
2019-Dec-13 09:35 6.1
2019-Dec-13 09:25 6.1
2019-Dec-13 09:15 6.1
2019-Dec-13 09:05 6.1
2019-Dec-13 08:55 5.6
2019-Dec-13 08:45 5.6
2019-Dec-13 08:35 5.6
2019-Dec-13 08:25 5.6
2019-Dec-13 08:15 5.6
2019-Dec-13 08:05 5.6
2019-Dec-13 07:55 5.6
2019-Dec-13 07:45 5.6
2019-Dec-13 07:35 5.6
2019-Dec-13 07:25 5.0
2019-Dec-13 07:15 5.0
2019-Dec-13 07:05 5.0
2019-Dec-13 06:55 5.0
2019-Dec-13 06:45 5.0
2019-Dec-13 06:35 5.0
2019-Dec-13 06:25 5.0
2019-Dec-13 06:15 5.0
2019-Dec-13 06:05 5.0
2019-Dec-13 05:55 5.0
2019-Dec-13 05:45 5.0
2019-Dec-13 05:35 5.0
2019-Dec-13 05:25 5.0
2019-Dec-13 05:15 5.0
2019-Dec-13 05:05 5.0
2019-Dec-13 04:55 5.0
2019-Dec-13 04:45 5.0
2019-Dec-13 04:35 4.4
2019-Dec-13 04:25 4.4
2019-Dec-13 04:15 4.4
2019-Dec-13 04:05 4.4
2019-Dec-13 03:55 4.4
2019-Dec-13 03:45 4.4
2019-Dec-13 03:35 4.4
2019-Dec-13 03:25 3.9
2019-Dec-13 03:15 3.9
2019-Dec-13 03:05 3.9
2019-Dec-13 02:55 3.9
2019-Dec-13 02:45 3.9
2019-Dec-13 02:35 3.9
2019-Dec-13 02:25 3.9
2019-Dec-13 02:15 3.9
2019-Dec-13 02:05 3.9
2019-Dec-13 01:55 3.9
2019-Dec-13 01:45 3.9
2019-Dec-13 01:35 3.9
2019-Dec-13 01:25 3.9
2019-Dec-13 01:15 3.9
2019-Dec-13 01:05 3.9
2019-Dec-13 00:55 4.4
2019-Dec-13 00:45 4.4
2019-Dec-13 00:35 4.4
2019-Dec-13 00:25 4.4
2019-Dec-13 00:15 4.4
2019-Dec-13 00:05 4.4
2019-Dec-12 23:55 4.4
2019-Dec-12 23:45 5.0
2019-Dec-12 23:35 5.0
2019-Dec-12 23:25 5.0
2019-Dec-12 23:15 5.0
2019-Dec-12 23:05 5.0
2019-Dec-12 22:55 5.6
2019-Dec-12 22:45 5.6
2019-Dec-12 22:35 5.6
2019-Dec-12 22:25 5.6
2019-Dec-12 22:15 5.6
2019-Dec-12 22:05 5.0
2019-Dec-12 21:55 5.0
2019-Dec-12 21:45 5.0
2019-Dec-12 21:35 5.0
2019-Dec-12 21:25 5.0
2019-Dec-12 21:15 5.0
2019-Dec-12 21:05 5.0
2019-Dec-12 20:55 5.0
2019-Dec-12 20:45 5.0
2019-Dec-12 20:35 5.0
2019-Dec-12 20:25 5.0
2019-Dec-12 20:15 5.0
2019-Dec-12 20:05 5.0
2019-Dec-12 19:55 5.0
2019-Dec-12 19:45 5.0
2019-Dec-12 19:35 5.0
2019-Dec-12 19:25 5.0
2019-Dec-12 19:15 5.0
2019-Dec-12 19:05 5.0
2019-Dec-12 18:55 5.0
2019-Dec-12 18:45 5.0
2019-Dec-12 18:35 5.0
2019-Dec-12 18:25 5.0
2019-Dec-12 18:15 5.0
2019-Dec-12 18:05 5.0
2019-Dec-12 17:55 5.0
2019-Dec-12 17:45 5.0
2019-Dec-12 17:35 5.0
2019-Dec-12 17:25 5.0
2019-Dec-12 17:15 5.0
2019-Dec-12 17:05 5.0
2019-Dec-12 16:55 5.0
2019-Dec-12 16:45 5.0
2019-Dec-12 16:35 5.0
2019-Dec-12 16:25 5.0
2019-Dec-12 16:15 5.0
2019-Dec-12 16:05 5.0
2019-Dec-12 15:55 4.4
2019-Dec-12 15:45 5.0
2019-Dec-12 15:35 5.0
2019-Dec-12 15:25 5.0
2019-Dec-12 15:15 5.0
2019-Dec-12 15:05 5.0
2019-Dec-12 14:55 5.0
2019-Dec-12 14:45 5.0
2019-Dec-12 14:35 5.0
2019-Dec-12 14:25 5.0
2019-Dec-12 14:15 5.0
2019-Dec-12 14:05 5.0
2019-Dec-12 13:55 5.0
2019-Dec-12 13:45 5.0
2019-Dec-12 13:35 5.0
2019-Dec-12 13:25 5.0
2019-Dec-12 13:15 5.0
2019-Dec-12 13:05 5.0
2019-Dec-12 12:55 5.0
2019-Dec-12 12:45 5.0
2019-Dec-12 12:35 135 0 gusting 7 5.0
2019-Dec-12 12:25 135 0 gusting 2 5.0
2019-Dec-12 12:15 045 0 gusting 4 4.4
2019-Dec-12 12:05 045 0 gusting 5 4.4
2019-Dec-12 11:55 315 0 gusting 3 4.4
2019-Dec-12 11:45 045 0 gusting 5 4.4
2019-Dec-12 11:35 4.4
2019-Dec-12 11:25 4.4
2019-Dec-12 11:15 135 0 gusting 6 4.4
2019-Dec-12 11:05 4.4
2019-Dec-12 10:55 135 0 gusting 3 4.4
2019-Dec-12 10:45 158 0 gusting 4 3.9
2019-Dec-12 10:35 135 0 gusting 6 3.9
2019-Dec-12 10:25 3.9
2019-Dec-12 10:15 315 0 gusting 3 3.9
2019-Dec-12 10:05 3.9
2019-Dec-12 09:55 338 0 gusting 6 3.3
2019-Dec-12 09:45 135 0 gusting 4 3.3
2019-Dec-12 09:35 315 0 gusting 4 3.3
2019-Dec-12 09:25 3.3
2019-Dec-12 09:15 315 0 gusting 3 3.3
2019-Dec-12 09:05 158 0 gusting 2 3.3
2019-Dec-12 08:55 338 0 gusting 3 3.3
2019-Dec-12 08:45 158 0 gusting 4 3.3
2019-Dec-12 08:35 315 0 gusting 4 3.3
2019-Dec-12 08:25 3.3
2019-Dec-12 08:15 3.3
2019-Dec-12 08:05 3.3
2019-Dec-12 07:55 3.9
2019-Dec-12 07:45 3.9
2019-Dec-12 07:35 3.9
2019-Dec-12 07:25 3.9
2019-Dec-12 07:05 135 0 gusting 5 4.4
2019-Dec-12 06:55 135 0 gusting 4 4.4
2019-Dec-12 06:45 045 0 gusting 6 4.4
2019-Dec-12 06:35 4.4
2019-Dec-12 06:25 4.4
2019-Dec-12 06:15 135 0 gusting 3 5.0
2019-Dec-12 06:05 5.0
2019-Dec-12 05:55 5.0
2019-Dec-12 05:45 5.0
2019-Dec-12 05:35 5.0
2019-Dec-12 05:25 5.0
2019-Dec-12 05:15 5.0
2019-Dec-12 05:05 5.0
2019-Dec-12 04:55 225 0 gusting 3 5.0
2019-Dec-12 04:45 5.0
2019-Dec-12 04:35 4.4
2019-Dec-12 04:25 4.4
2019-Dec-12 04:15 4.4
2019-Dec-12 04:05 4.4
2019-Dec-12 03:55 5.0
2019-Dec-12 03:45 5.0
2019-Dec-12 03:35 5.0
2019-Dec-12 03:25 5.0
2019-Dec-12 03:15 5.0
2019-Dec-12 03:05 338 0 gusting 3 5.6
2019-Dec-12 02:55 225 0 gusting 2 5.6
2019-Dec-12 02:45 315 0 gusting 3 5.6
2019-Dec-12 02:35 5.0
2019-Dec-12 02:25 5.0
2019-Dec-12 02:15 338 0 gusting 2 5.6
2019-Dec-12 02:05 5.6
2019-Dec-12 01:55 315 0 gusting 3 5.0
2019-Dec-12 01:45 315 0 gusting 3 5.0
2019-Dec-12 01:35 315 1 gusting 5 5.6
2019-Dec-12 01:25 315 0 gusting 6 5.6
2019-Dec-12 01:15 315 0 gusting 7 5.0
2019-Dec-12 01:05 315 0 gusting 2 5.0
2019-Dec-12 00:55 315 0 gusting 4 5.0
2019-Dec-12 00:45 315 0 gusting 2 5.0
2019-Dec-12 00:35 315 1 gusting 6 5.0
2019-Dec-12 00:25 315 1 gusting 6 5.0
2019-Dec-12 00:15 315 1 gusting 5 5.0
2019-Dec-12 00:05 315 1 gusting 5 5.0